Left ArrowRight Arrow

44.5394, -95.11694

Hourly Observations for May 22, 2024

Temp ( °F °C ) Dew Point ( °F °C ) Humidity (%) Winds ( mph kmh ) Pressure ( in mb ) Visibility ( mi km ) Precip ( " mm )
12:10 am 00:10 Cloudy 53 11.7 48 8.9 83 83 WNW 18 30 29.59 1002 10 16 0.01 0.13
12:53 am 00:53 Cloudy 53 11.7 47 8.3 80 80 WNW 18 30 29.59 1002 10 16 0.01 0.13
1:53 am 01:53 Partly Cloudy 52 11.1 46 7.8 80 80 W 18 30 29.62 1003 10 16 0.00 0.00
2:53 am 02:53 Clear 51 10.6 46 7.8 83 83 W 15 24 29.64 1004 10 16 0.00 0.00
3:53 am 03:53 Clear 51 10.6 45 7.2 79 79 W 15 24 29.65 1004 10 16 0.00 0.00
4:53 am 04:53 Clear 50 10 44 6.7 80 80 W 15 24 29.66 1004 10 16 0.00 0.00
5:53 am 05:53 Sunny 51 10.6 44 6.7 77 77 W 16 26 29.69 1006 10 16 0.00 0.00
6:53 am 06:53 Sunny 52 11.1 44 6.7 74 74 W 15 24 29.72 1006 10 16 0.00 0.00
7:53 am 07:53 Sunny 53 11.7 45 7.2 74 74 W 12 19 29.74 1007 10 16 0.00 0.00
8:53 am 08:53 Sunny 57 13.9 46 7.8 67 67 W 13 20 29.75 1007 10 16 0.00 0.00
9:53 am 09:53 Sunny 63 17.2 46 7.8 54 54 W 15 24 29.75 1007 10 16 0.00 0.00
10:53 am 10:53 Sunny 62 16.7 47 8.3 58 58 W 16 26 29.75 1008 10 16 0.00 0.00
11:53 am 11:53 Sunny 65 18.3 50 10 58 58 W 17 28 29.75 1008 10 16 0.00 0.00
12:53 pm 12:53 Mostly Sunny 67 19.4 46 7.8 47 47 WNW 21 33 29.75 1007 10 16 0.00 0.00
1:53 pm 13:53 Mostly Sunny 68 20 42 5.6 39 39 W 21 33 29.76 1008 10 16 0.00 0.00
2:53 pm 14:53 Mostly Sunny 68 20 42 5.6 39 39 W 16 26 29.77 1008 10 16 0.00 0.00
3:53 pm 15:53 Partly Cloudy 70 21.1 43 6.1 38 38 WNW 17 28 29.77 1008 10 16 0.00 0.00
4:53 pm 16:53 Mostly Sunny 69 20.6 42 5.6 37 37 WNW 15 24 29.77 1008 10 16 0.00 0.00
5:53 pm 17:53 Mostly Cloudy 68 20 43 6.1 40 40 W 10 17 29.76 1008 10 16 0.00 0.00
6:53 pm 18:53 Partly Cloudy 68 20 43 6.1 40 40 W 15 24 29.77 1008 10 16 0.00 0.00
7:53 pm 19:53 Sunny 67 19.4 43 6.1 42 42 W 10 17 29.78 1008 10 16 0.00 0.00
8:53 pm 20:53 Clear 64 17.8 44 6.7 48 48 SW 6 9 29.79 1009 10 16 0.00 0.00
9:53 pm 21:53 Clear 61 16.1 45 7.2 56 56 SW 6 9 29.80 1009 10 16 0.00 0.00
10:53 pm 22:53 Clear 59 15 46 7.8 62 62 SSW 7 11 29.81 1010 10 16 0.00 0.00
11:53 pm 23:53 Mostly Cloudy 58 14.4 47 8.3 67 67 SSW 8 13 29.81 1010 10 16 0.00 0.00

Powered by Vaisala Xweather